Time,TemperatureF,DewpointF,PressureIn,WindDirection,WindDirectionDegrees,WindSpeedMPH,WindSpeedGustMPH,Humidity,HourlyPrecipIn,Conditions,Clouds,dailyrainin,SoftwareType,DateUTC
2013-09-26 17:31:00,67.0,52.2,30.08,NNE,16,1.0,1.0,59,0.00,,,0.00,Wunderground v.1.15,2013-09-26 21:31:00,
2013-09-26 17:35:00,66.9,51.6,30.08,NNW,328,1.0,1.0,58,0.00,,,0.00,Wunderground v.1.15,2013-09-26 21:35:00,
2013-09-26 17:40:00,66.8,52.0,30.09,NNW,344,2.0,2.0,59,0.00,,,0.00,Wunderground v.1.15,2013-09-26 21:40:00,
2013-09-26 17:45:00,66.7,51.9,30.09,North,353,2.0,2.0,59,0.00,,,0.00,Wunderground v.1.15,2013-09-26 21:45:00,
2013-09-26 17:50:00,66.5,51.3,30.09,NW,326,2.0,2.0,58,0.00,,,0.00,Wunderground v.1.15,2013-09-26 21:50:00,
2013-09-26 17:55:00,66.5,51.3,30.09,NNE,12,1.0,2.0,58,0.00,,,0.00,Wunderground v.1.15,2013-09-26 21:55:00,
2013-09-26 18:05:00,66.2,51.0,30.09,ENE,66,1.0,1.0,58,0.00,,,0.00,Wunderground v.1.15,2013-09-26 22:05:00,
2013-09-26 18:15:00,65.3,51.1,30.09,East,84,2.0,2.0,60,0.00,,,0.00,Wunderground v.1.15,2013-09-26 22:15:00,
2013-09-26 18:20:00,65.0,51.2,30.10,NNW,340,1.0,2.0,61,0.00,,,0.00,Wunderground v.1.15,2013-09-26 22:20:00,
2013-09-26 18:25:00,64.8,51.9,30.10,NNW,344,1.0,1.0,63,0.00,,,0.00,Wunderground v.1.15,2013-09-26 22:25:00,
2013-09-26 18:30:00,64.4,52.0,30.10,NNW,347,1.0,1.0,64,0.00,,,0.00,Wunderground v.1.15,2013-09-26 22:30:00,
2013-09-26 18:35:00,64.0,52.0,30.10,NNW,347,1.0,1.0,65,0.00,,,0.00,Wunderground v.1.15,2013-09-26 22:35:00,
2013-09-26 18:40:00,63.3,52.2,30.10,NNE,27,0.0,1.0,67,0.00,,,0.00,Wunderground v.1.15,2013-09-26 22:40:00,
2013-09-26 18:50:00,62.1,52.2,30.10,NNW,341,0.0,0.0,70,0.00,,,0.00,Wunderground v.1.15,2013-09-26 22:50:00,
2013-09-26 18:55:00,61.6,52.5,30.10,NNW,341,0.0,0.0,72,0.00,,,0.00,Wunderground v.1.15,2013-09-26 22:55:00,
2013-09-26 19:05:00,60.7,52.4,30.11,NNW,340,0.0,0.0,74,0.00,,,0.00,Wunderground v.1.15,2013-09-26 23:05:00,
2013-09-26 19:10:00,60.4,52.4,30.11,NNW,340,0.0,0.0,75,0.00,,,0.00,Wunderground v.1.15,2013-09-26 23:10:00,
2013-09-26 19:15:00,60.0,52.4,30.11,NNW,340,0.0,0.0,76,0.00,,,0.00,Wunderground v.1.15,2013-09-26 23:15:00,
2013-09-26 19:20:00,59.6,52.4,30.11,NNW,340,0.0,0.0,77,0.00,,,0.00,Wunderground v.1.15,2013-09-26 23:20:00,
2013-09-26 19:25:00,59.2,52.7,30.11,NNW,340,0.0,0.0,79,0.00,,,0.00,Wunderground v.1.15,2013-09-26 23:25:00,
2013-09-26 19:30:00,58.8,52.6,30.11,NNW,340,0.0,0.0,80,0.00,,,0.00,Wunderground v.1.15,2013-09-26 23:30:00,
2013-09-26 19:35:00,58.4,52.6,30.11,NNW,340,0.0,0.0,81,0.00,,,0.00,Wunderground v.1.15,2013-09-26 23:35:00,
2013-09-26 19:40:00,58.1,52.6,30.12,NNW,340,0.0,0.0,82,0.00,,,0.00,Wunderground v.1.15,2013-09-26 23:40:00,
2013-09-26 19:45:00,57.7,52.2,30.11,NNW,340,0.0,0.0,82,0.00,,,0.00,Wunderground v.1.15,2013-09-26 23:45:00,
2013-09-26 19:50:00,57.3,52.2,30.12,NNW,340,0.0,0.0,83,0.00,,,0.00,Wunderground v.1.15,2013-09-26 23:50:00,
2013-09-26 20:00:00,56.4,51.9,30.12,NNW,340,0.0,0.0,85,0.00,,,0.00,Wunderground v.1.15,2013-09-27 00:00:00,
2013-09-26 20:15:00,55.4,51.9,30.12,NNW,340,0.0,0.0,88,0.00,,,0.00,Wunderground v.1.15,2013-09-27 00:15:00,
2013-09-26 20:20:00,55.1,51.6,30.12,NNW,340,0.0,0.0,88,0.00,,,0.00,Wunderground v.1.15,2013-09-27 00:20:00,
2013-09-26 20:25:00,54.7,51.5,30.12,NNW,340,0.0,0.0,89,0.00,,,0.00,Wunderground v.1.15,2013-09-27 00:25:00,
2013-09-26 20:30:00,54.4,51.5,30.13,NNW,340,0.0,0.0,90,0.00,,,0.00,Wunderground v.1.15,2013-09-27 00:30:00,
2013-09-26 20:35:00,54.2,51.3,30.13,NNW,340,0.0,0.0,90,0.00,,,0.00,Wunderground v.1.15,2013-09-27 00:35:00,
2013-09-26 20:40:00,54.0,51.4,30.13,NNW,340,0.0,0.0,91,0.00,,,0.00,Wunderground v.1.15,2013-09-27 00:40:00,
2013-09-26 20:45:00,53.8,51.5,30.12,NNW,340,0.0,0.0,92,0.00,,,0.00,Wunderground v.1.15,2013-09-27 00:45:00,
2013-09-26 20:50:00,53.6,51.3,30.12,NNW,340,0.0,0.0,92,0.00,,,0.00,Wunderground v.1.15,2013-09-27 00:50:00,
2013-09-26 21:00:00,53.3,51.0,30.13,NNW,340,0.0,0.0,92,0.00,,,0.00,Wunderground v.1.15,2013-09-27 01:00:00,
2013-09-26 21:10:00,53.2,51.2,30.13,NNW,340,0.0,0.0,93,0.00,,,0.00,Wunderground v.1.15,2013-09-27 01:10:00,
2013-09-26 21:15:00,53.0,51.0,30.13,NNW,340,0.0,0.0,93,0.00,,,0.00,Wunderground v.1.15,2013-09-27 01:15:00,
2013-09-26 21:20:00,52.8,50.8,30.13,NNW,340,0.0,0.0,93,0.00,,,0.00,Wunderground v.1.15,2013-09-27 01:20:00,
2013-09-26 21:25:00,52.5,50.5,30.13,NNW,340,0.0,0.0,93,0.00,,,0.00,Wunderground v.1.15,2013-09-27 01:25:00,
2013-09-26 21:35:00,52.1,50.4,30.14,NNW,340,0.0,0.0,94,0.00,,,0.00,Wunderground v.1.15,2013-09-27 01:35:00,
2013-09-26 21:40:00,51.9,50.2,30.14,NNW,340,0.0,0.0,94,0.00,,,0.00,Wunderground v.1.15,2013-09-27 01:40:00,
2013-09-26 21:45:00,51.8,50.4,30.14,NNW,340,0.0,0.0,95,0.00,,,0.00,Wunderground v.1.15,2013-09-27 01:45:00,
2013-09-26 21:50:00,51.7,50.3,30.14,NNW,340,0.0,0.0,95,0.00,,,0.00,Wunderground v.1.15,2013-09-27 01:50:00,
2013-09-26 21:55:00,51.6,50.2,30.14,NNW,340,0.0,0.0,95,0.00,,,0.00,Wunderground v.1.15,2013-09-27 01:55:00,
2013-09-26 22:00:00,51.6,50.2,30.14,NNW,340,0.0,0.0,95,0.00,,,0.00,Wunderground v.1.15,2013-09-27 02:00:00,
2013-09-26 22:10:00,51.4,50.0,30.14,NNW,340,0.0,0.0,95,0.00,,,0.00,Wunderground v.1.15,2013-09-27 02:10:00,
2013-09-26 22:15:00,51.2,49.8,30.14,NNW,340,0.0,0.0,95,0.00,,,0.00,Wunderground v.1.15,2013-09-27 02:15:00,
2013-09-26 22:20:00,51.2,49.8,30.14,NNW,340,0.0,0.0,95,0.00,,,0.00,Wunderground v.1.15,2013-09-27 02:20:00,
2013-09-26 22:25:00,50.9,49.5,30.14,NNW,340,0.0,0.0,95,0.00,,,0.00,Wunderground v.1.15,2013-09-27 02:25:00,
2013-09-26 22:30:00,50.7,49.3,30.14,NNW,340,0.0,0.0,95,0.00,,,0.00,Wunderground v.1.15,2013-09-27 02:30:00,
2013-09-26 22:40:00,50.6,49.5,30.14,NNW,340,0.0,0.0,96,0.00,,,0.00,Wunderground v.1.15,2013-09-27 02:40:00,
2013-09-26 22:45:00,50.4,49.0,30.14,NNW,340,0.0,0.0,95,0.00,,,0.00,Wunderground v.1.15,2013-09-27 02:45:00,
2013-09-26 22:50:00,50.3,49.2,30.14,NNW,340,0.0,0.0,96,0.00,,,0.00,Wunderground v.1.15,2013-09-27 02:50:00,
2013-09-26 22:55:00,50.2,49.1,30.14,NNW,340,0.0,0.0,96,0.00,,,0.00,Wunderground v.1.15,2013-09-27 02:55:00,
2013-09-26 23:00:00,50.3,49.2,30.14,NNW,340,0.0,0.0,96,0.00,,,0.00,Wunderground v.1.15,2013-09-27 03:00:00,
2013-09-26 23:10:00,50.1,49.0,30.14,NNW,340,0.0,0.0,96,0.00,,,0.00,Wunderground v.1.15,2013-09-27 03:10:00,
2013-09-26 23:15:00,50.0,48.9,30.14,West,270,0.0,0.0,96,0.00,,,0.00,Wunderground v.1.15,2013-09-27 03:15:00,
2013-09-26 23:20:00,50.0,48.9,30.14,West,270,0.0,0.0,96,0.00,,,0.00,Wunderground v.1.15,2013-09-27 03:20:00,
2013-09-26 23:25:00,49.9,48.5,30.14,West,277,0.0,0.0,95,0.00,,,0.00,Wunderground v.1.15,2013-09-27 03:25:00,
2013-09-26 23:30:00,49.7,48.3,30.14,West,277,0.0,0.0,95,0.00,,,0.00,Wunderground v.1.15,2013-09-27 03:30:00,
2013-09-26 23:35:00,49.5,48.1,30.14,West,277,0.0,0.0,95,0.00,,,0.00,Wunderground v.1.15,2013-09-27 03:35:00,
2013-09-26 23:45:00,49.4,48.3,30.14,West,277,0.0,0.0,96,0.00,,,0.00,Wunderground v.1.15,2013-09-27 03:45:00,
2013-09-26 23:50:00,49.2,48.1,30.14,West,277,0.0,0.0,96,0.00,,,0.00,Wunderground v.1.15,2013-09-27 03:50:00,
2013-09-26 23:55:00,49.2,48.1,30.14,West,277,0.0,0.0,96,0.00,,,0.00,Wunderground v.1.15,2013-09-27 03:55:00,